TimeEST,TemperatureF,Dew PointF,Humidity,Sea Level PressureIn,VisibilityMPH,Wind Direction,Wind SpeedMPH,Gust SpeedMPH,PrecipitationIn,Events,Conditions,WindDirDegrees,DateUTC
12:15 AM,41.0,26.6,57,30.08,10.0,Calm,Calm,-,N/A,,Scattered Clouds,0,2013-03-05 05:15:00
12:35 AM,41.0,26.6,57,30.08,10.0,Calm,Calm,-,N/A,,Scattered Clouds,0,2013-03-05 05:35:00
12:55 AM,41.0,26.6,57,30.08,10.0,Calm,Calm,-,N/A,,Scattered Clouds,0,2013-03-05 05:55:00
1:15 AM,41.0,28.4,61,30.09,10.0,Calm,Calm,-,N/A,,Mostly Cloudy,0,2013-03-05 06:15:00
1:35 AM,37.4,28.4,70,30.09,10.0,Calm,Calm,-,N/A,,Scattered Clouds,0,2013-03-05 06:35:00
1:55 AM,39.2,28.4,65,30.09,10.0,Calm,Calm,-,N/A,,Scattered Clouds,0,2013-03-05 06:55:00
2:15 AM,37.4,28.4,70,30.09,10.0,Calm,Calm,-,N/A,,Scattered Clouds,0,2013-03-05 07:15:00
2:35 AM,37.4,28.4,70,30.09,10.0,Calm,Calm,-,N/A,,Clear,0,2013-03-05 07:35:00
2:55 AM,35.6,28.4,75,30.08,10.0,Calm,Calm,-,N/A,,Clear,0,2013-03-05 07:55:00
3:15 AM,35.6,26.6,70,30.08,10.0,Calm,Calm,-,N/A,,Clear,0,2013-03-05 08:15:00
3:35 AM,33.8,26.6,75,30.07,10.0,Calm,Calm,-,N/A,,Clear,0,2013-03-05 08:35:00
3:55 AM,33.8,26.6,75,30.07,10.0,Calm,Calm,-,N/A,,Clear,0,2013-03-05 08:55:00
4:15 AM,37.4,26.6,65,30.06,10.0,Calm,Calm,-,N/A,,Clear,0,2013-03-05 09:15:00
4:35 AM,39.2,26.6,61,30.06,10.0,Calm,Calm,-,N/A,,Clear,0,2013-03-05 09:35:00
4:55 AM,39.2,26.6,61,30.06,10.0,Calm,Calm,-,N/A,,Clear,0,2013-03-05 09:55:00
5:15 AM,41.0,26.6,57,30.06,10.0,Calm,Calm,-,N/A,,Clear,0,2013-03-05 10:15:00
5:35 AM,41.0,28.4,61,30.06,10.0,Calm,Calm,-,N/A,,Scattered Clouds,0,2013-03-05 10:35:00
5:55 AM,41.0,28.4,61,30.05,10.0,Calm,Calm,-,N/A,,Clear,0,2013-03-05 10:55:00
6:15 AM,42.8,28.4,57,30.06,10.0,Calm,Calm,-,N/A,,Clear,0,2013-03-05 11:15:00
6:35 AM,42.8,26.6,53,30.05,10.0,Calm,Calm,-,N/A,,Clear,0,2013-03-05 11:35:00
6:55 AM,44.6,26.6,49,30.05,10.0,Calm,Calm,-,N/A,,Scattered Clouds,0,2013-03-05 11:55:00
7:55 AM,46.4,28.4,50,30.04,10.0,Calm,Calm,-,N/A,,Overcast,0,2013-03-05 12:55:00
8:55 AM,46.4,28.4,50,30.04,7.0,Calm,Calm,-,N/A,,Overcast,0,2013-03-05 13:55:00
9:55 AM,48.2,32.0,54,30.02,7.0,Calm,Calm,-,N/A,,Overcast,0,2013-03-05 14:55:00
10:55 AM,46.4,39.2,76,30.03,4.0,Calm,Calm,-,N/A,Rain,Rain,0,2013-03-05 15:55:00
11:55 AM,44.6,42.8,93,30.00,4.0,Calm,Calm,-,N/A,Rain,Rain,0,2013-03-05 16:55:00
12:55 PM,44.6,42.8,93,29.96,7.0,Calm,Calm,-,N/A,,Overcast,0,2013-03-05 17:55:00
1:55 PM,46.4,42.8,87,29.92,7.0,Calm,Calm,-,N/A,,Overcast,0,2013-03-05 18:55:00
2:55 PM,48.2,42.8,82,29.89,7.0,Calm,Calm,-,N/A,,Overcast,0,2013-03-05 19:55:00
3:55 PM,48.2,42.8,82,29.87,7.0,Calm,Calm,-,N/A,,Overcast,0,2013-03-05 20:55:00
4:55 PM,50.0,44.6,82,29.81,10.0,Calm,Calm,-,N/A,,Mostly Cloudy,0,2013-03-05 21:55:00
5:55 PM,48.2,44.6,87,29.77,10.0,Calm,Calm,-,N/A,,Mostly Cloudy,0,2013-03-05 22:55:00
6:55 PM,48.2,44.6,87,29.71,10.0,Calm,Calm,-,N/A,,Overcast,0,2013-03-05 23:55:00
7:55 PM,46.4,44.6,93,29.66,5.0,SE,5.8,-,N/A,Rain,Rain,140,2013-03-06 00:55:00
8:15 PM,46.4,44.6,93,29.69,3.0,NW,13.8,23.0,0.08,,Overcast,320,2013-03-06 01:15:00
8:35 PM,46.4,44.6,93,29.68,7.0,North,8.1,-,0.18,,Overcast,360,2013-03-06 01:35:00
8:55 PM,44.6,42.8,93,29.65,7.0,NE,5.8,-,0.18,,Mostly Cloudy,50,2013-03-06 01:55:00
9:15 PM,44.6,42.8,93,29.66,7.0,WNW,5.8,-,N/A,,Mostly Cloudy,300,2013-03-06 02:15:00
9:35 PM,44.6,42.8,93,29.68,5.0,WNW,8.1,-,N/A,,Overcast,290,2013-03-06 02:35:00
9:55 PM,44.6,42.8,93,29.67,7.0,NNW,5.8,-,N/A,,Overcast,330,2013-03-06 02:55:00
10:15 PM,44.6,42.8,93,29.66,7.0,Calm,Calm,-,N/A,,Overcast,0,2013-03-06 03:15:00
10:35 PM,44.6,42.8,93,29.65,7.0,Calm,Calm,-,N/A,,Overcast,0,2013-03-06 03:35:00
10:55 PM,44.6,42.8,93,29.64,5.0,Calm,Calm,-,N/A,,Overcast,0,2013-03-06 03:55:00
11:15 PM,44.6,42.8,93,29.64,5.0,Calm,Calm,-,N/A,,Overcast,0,2013-03-06 04:15:00
11:35 PM,44.6,42.8,93,29.63,5.0,West,3.5,-,N/A,,Overcast,270,2013-03-06 04:35:00
11:55 PM,42.8,41.0,93,29.65,5.0,WNW,6.9,18.4,N/A,,Overcast,300,2013-03-06 04:55:00